NSS-5

Last updated on Nov. 18, 2019, 4:21 a.m. UTC

1 24957U 97053A   19321.43712351  .00000113  00000-0  00000+0 0  9997
2 24957   5.5448  64.8898 0004025 176.9084  22.2949  1.00273301 81132
UTC
Height (km)
Latitude
Longitude
Inclination
Orbital Period
UTC large
Height (km)
Speed (km/s)
/
Latitude / Longitude
Inclination (degrees)
Orbital Period (minutes)
Azimuth
Elevation
Range (km)
Doppler Factor
iOS Compass Heading
iOS Angle

Next 30 passes for location: Hong Kong

Rise time Rise Azimuth (degrees) Set time Set Azimuth (degrees) Duration Max altitude (degrees)

No matching passes for this satellites